Tracking 19146 objects as of 23-Apr-2018
HD Live streaming from Space Station
objects crossing your sky now

FENGYUN 1C DEB

Track FENGYUN 1C DEB now!
10-day predictions


NORAD ID: 30496
Int'l Code: 1999-025AHJ
Perigee: 534.6 km
Apogee: 798.8 km
Inclination: 98.8 °
Period: 97.9 minutes
Semi major axis: 7037 km
RCS: 0.0065 m2 (small)
Launch date: May 10, 1999
Source: People's Republic of China (PRC)
Launch site: Taiyaun Space Center, China (TSC)

Note: This is SATELLITE DEBRIS
aabbcc
Your satellite tracking list
Your tracking list is empty




NASA's NSSDC Master Catalog

Two Line Element Set (TLE):
1 30496U 99025AHJ 18113.39879537  .00000340  00000-0  52327-4 0  9992
2 30496  98.8358  86.8547 0187686 234.2973 124.0641 14.70473947600829
Source of the keplerian elements: AFSPC